Погода в Махабалипураме

Индия     12°37′41″N   80°11′40″E
темп.,
°C
ветер,
м/с
пор.,
м/с
влажн.,
%
обл.,
%
осадки,
мм/ч
давл.,
гПа
погр.,
м
16 мая, вс
вс1623:30+30ююз71070100 0.3 1005904
02:30+29ю797099 0.0 1003706
05:30+28ююз61069100 0.0 1004633
08:30+30ю7870100 0.0 1007881
11:30+31ю8866100 0.0 10061063
14:30+31ююв8966100 0.0 10041007
17:30+30ююв91074100 0.0 1003737
20:30+30ююв9117456 1.1 1006533
17 мая, пн
пн1723:30+30ю8107553 1.8 1006539
02:30+30ю697299 1.4 1005538
05:30+29ю58727 1.8 1006498
08:30+31ю556421 0.7 1008879
11:30+32ююв6656100 0.8 1008875
14:30+32юв6659100 0.0 1005780
17:30+31юв677244 0.0 1004666
20:30+30ююв57803 0.0 1007636
18 мая, вт
вт1823:30+30ююв567965 0.9 1007440
02:30+29ю5777100 4.2 1005407
05:30+29ю687496 5.0 1006591
08:30+31ю776936 0.1 1008924
11:30+32ююв76649 0.1 1007982
14:30+32ююв76656 0.0 1004759
17:30+31юв78745 0.0 1004625
20:30+30ююв79805 0.0 1006637
19 мая, ср
ср1923:30+30ю79805 0.1 1007705
02:30+30ю810795 0.6 1005755
05:30+29ю687917 1.1 1006627
08:30+31ю667038 0.8 1008798
11:30+32ююв766551 0.3 1006954
14:30+32ююв77658 0.0 1003722
17:30+31ююв897497 0.0 1003505
20:30+30ю8118290 0.0 1005591
20 мая, чт
чт2023:30+30ю81182100 0.0 1006661
02:30+30ююз6107735 0.2 1004655
05:30+29ююз69795 0.3 1005539
08:30+32ююз776824 0.1 1007831
11:30+33ю876297 0.1 1006996
14:30+33ююв986496 0.0 1002542
17:30+31ююв9107794 0.0 1003493
20:30+30ю81282100 0.2 1005545